Location: Ar Ranvel
(48.3000°N, 4.8833°W)
Time: 09:03:52
(UTC+00:00)

FALCON 9 DEB - Pass Details

Date: 16 June 2021
Orbit: 422 x 432 km, 53.0° (Epoch: 26 July)

Event Time Altitude Azimuth Distance (km) Brightness Sun altitude
Rises 22:50:25 0° 249° (WSW) 2,392 6.9 -15.5°
Reaches altitude 10° 22:52:32 10° 252° (WSW) 1,526 5.9 -15.7°
Maximum altitude 22:55:56 71° 336° (NNW) 456 3.3 -15.9°
Drops below altitude 10° 22:59:22 10° 62° (ENE) 1,524 6.0 -16.1°
Sets 23:01:28 0° 65° (ENE) 2,390 7.0 -16.2°
